Regional Weather Roundup
Issued by NWS Raleigh/Durham, NC

Home | Current Version | Previous Version | Text Only | Print | Product List | Glossary On
Versions: 1 2 3 4 5 6 7 8 9 10 11 12 13 14 15 16 17 18 19 20 21 22 23 24 25 26 27
000
ASUS42 KRAH 081010
RWRRAH
NORTH CAROLINA WEATHER ROUNDUP
NATIONAL WEATHER SERVICE RALEIGH NC
500 AM EST THU DEC 08 2016

NOTE: "FAIR" INDICATES FEW OR NO CLOUDS BELOW 12,000 FEET WITH NO
SIGNIFICANT WEATHER AND/OR OBSTRUCTIONS TO VISIBILITY.

NCZ001-053-055-056-065-067-081100-
WESTERN NORTH CAROLINA

CITY           SKY/WX    TMP DP  RH WIND       PRES   REMARKS
ASHEVILLE      CLOUDY    41  34  76 N12G20    30.05S
JEFFERSON      CLOUDY    38  30  73 W12       29.99F WCI  31
HICKORY        CLOUDY    42  42 100 CALM      30.01F
RUTHERFORDTON  CLOUDY    47  47 100 W5        30.03F FOG
MOUNT AIRY     NOT AVBL
BOONE          PTCLDY    37  30  77 NW14G22   30.02R WCI  28
$$

NCZ021-022-025-041-071-084-088-081100-
CENTRAL NORTH CAROLINA

CITY           SKY/WX    TMP DP  RH WIND       PRES   REMARKS
CHARLOTTE      CLOUDY    50  46  86 W5        30.04R
GREENSBORO     CLOUDY    48  44  86 CALM      30.00F
WINSTON-SALEM  CLOUDY    47  37  68 N3        30.02F
RALEIGH-DURHAM CLOUDY    49  45  86 SE3       30.02S
FORT BRAGG     MOCLDY    49  47  93 SW6       30.03R
FAYETTEVILLE   CLOUDY    49  48  97 SW7       30.04R
BURLINGTON     CLOUDY    46  44  93 CALM      30.02R
LAURINBURG     CLOUDY    52  50  93 W6        30.05R
$$

NCZ011-015-027-028-043-044-047-080-103-081100-
NORTHEASTERN NORTH CAROLINA

CITY           SKY/WX    TMP DP  RH WIND       PRES   REMARKS
ROCKY MT-WILSO CLOUDY    47  46  97 SE3       30.03S
GREENVILLE     CLOUDY    46  46 100 CALM      30.06S
WASHINGTON     CLOUDY    47  45  94 SE3       30.04F
ELIZABETH CITY CLOUDY    44  43  96 CALM      30.05S
MANTEO         MOCLDY    41  41 100 CALM      30.04F
CAPE HATTERAS  NOT AVBL
$$

NCZ078-087-090-091-093-098-101-081100-
SOUTHEASTERN NORTH CAROLINA

CITY           SKY/WX    TMP DP  RH WIND       PRES   REMARKS
LUMBERTON      CLEAR     49  49 100 SW3       30.04S FOG
GOLDSBORO      CLOUDY    49  49  99 CALM      30.02R
KINSTON        CLOUDY    49  47  91 S5        30.04S
KENANSVILLE    NOT AVBL
NEW BERN       CLOUDY    50  49  96 CALM      30.04F
CHERRY POINT   CLOUDY    50  47  89 CALM      30.05F
BEAUFORT       CLOUDY    51  49  92 E3        30.04F
JACKSONVILLE   CLOUDY    48  47  96 CALM      30.03F
WILMINGTON     MOCLDY    48  48 100 SW6       30.05S
$$





USA.gov is the U.S. government's official web portal to all federal, state and local government web resources and services.